Weather History for KORC - February, 2013

Change the Weather History Date:

Thursday, February 28, 2013

  Actual Average Record
Temperature  
Mean Temperature 24 °F -  
Max Temperature 28 °F 32 °F 51 °F (2004)
Min Temperature 21 °F 17 °F -4 °F (2001)
Degree Days  
Heating Degree Days 40    
Moisture  
Dew Point 20 °F    
Average Humidity 81    
Maximum Humidity 93    
Minimum Humidity 74    
Precipitation  
Precipitation 0.00 in - - ()
Sea Level Pressure  
Sea Level Pressure 30.16 in    
Wind  
Wind Speed 11 mph (NNW)    
Max Wind Speed 17 mph    
Max Gust Speed 23 mph    
Visibility 10 miles    
Events      
Averages and records for this station are not official NWS values.
T = Trace of Precipitation, MM = Missing Value Source: NWS Daily Summary

Daily Weather History Graph

Daily Weather History Graph

Search for Another Location

Airport or City:

Trip Planner

Search our weather history database for the weather conditions in past years. The results will help you decide how hot, cold, wet, or windy it might be!

Date:

Astronomy

Feb. 28, 2013 Rise Set
Actual Time 7:01 AM CST 6:12 PM CST
Civil Twilight 6:32 AM CST 6:41 PM CST
Nautical Twilight 6:00 AM CST 7:14 PM CST
Astronomical Twilight 5:27 AM CST 7:46 PM CST
Moon 9:47 PM CST (2/28) 8:05 AM CST (2/28)
Length of Visible Light 12h 08m
Length of Day
11h 11m
Waning Gibbous, 90% of the Moon is Illuminated
Feb 28
Waning Gibbous
Mar 4
Last Quarter
Mar 11
New
Mar 19
First Quarter
Mar 27
Full

Hourly Weather History & Observations

Time (CST) Temp. Windchill Dew Point Humidity Pressure Visibility Wind Dir Wind Speed Gust Speed Precip Events Conditions
12:15 AM 26.6 °F 13.8 °F 21.2 °F 80% 30.07 in 10.0 mi NNW 17.3 mph 23.0 mph N/A   Overcast
12:35 AM 26.6 °F 16.8 °F 21.2 °F 80% 30.08 in 10.0 mi North 10.4 mph 20.7 mph N/A   Overcast
12:55 AM 26.6 °F 16.2 °F 21.2 °F 80% 30.08 in 10.0 mi NNW 11.5 mph - N/A   Overcast
1:15 AM 26.6 °F 17.5 °F 21.2 °F 80% 30.08 in 10.0 mi North 9.2 mph - N/A   Overcast
1:35 AM 26.6 °F 17.5 °F 19.4 °F 74% 30.08 in 10.0 mi North 9.2 mph 17.3 mph N/A   Overcast
1:55 AM 24.8 °F 16.1 °F 19.4 °F 80% 30.09 in 10.0 mi North 8.1 mph - N/A   Overcast
2:15 AM 24.8 °F 15.3 °F 19.4 °F 80% 30.09 in 10.0 mi North 9.2 mph - N/A   Overcast
2:35 AM 24.8 °F 14.6 °F 19.4 °F 80% 30.10 in 10.0 mi North 10.4 mph - N/A   Overcast
2:55 AM 24.8 °F 16.1 °F 19.4 °F 80% 30.10 in 10.0 mi North 8.1 mph - N/A   Overcast
3:15 AM 24.8 °F 16.1 °F 19.4 °F 80% 30.10 in 10.0 mi North 8.1 mph 16.1 mph N/A   Overcast
3:55 AM 24.8 °F 15.3 °F 19.4 °F 80% 30.11 in 10.0 mi North 9.2 mph - N/A   Overcast
4:15 AM 24.8 °F 14.0 °F 19.4 °F 80% 30.11 in 10.0 mi North 11.5 mph 17.3 mph N/A   Overcast
4:35 AM 24.8 °F 15.3 °F 19.4 °F 80% 30.11 in 10.0 mi North 9.2 mph - N/A   Overcast
4:55 AM 24.8 °F 15.3 °F 19.4 °F 80% 30.11 in 10.0 mi North 9.2 mph - N/A   Overcast
5:15 AM 23.0 °F 13.1 °F 19.4 °F 86% 30.12 in 10.0 mi NNW 9.2 mph - N/A   Overcast
5:35 AM 23.0 °F 12.4 °F 19.4 °F 86% 30.13 in 10.0 mi NNW 10.4 mph - N/A   Overcast
5:55 AM 23.0 °F 14.7 °F 19.4 °F 86% 30.13 in 10.0 mi NNW 6.9 mph - N/A   Overcast
6:15 AM 23.0 °F 13.9 °F 19.4 °F 86% 30.13 in 7.0 mi North 8.1 mph - N/A   Overcast
6:35 AM 23.0 °F 14.7 °F 19.4 °F 86% 30.14 in 7.0 mi NNW 6.9 mph - N/A   Overcast
6:55 AM 21.2 °F 10.9 °F 19.4 °F 93% 30.14 in 7.0 mi NW 9.2 mph - N/A   Overcast
7:15 AM 21.2 °F 10.1 °F 19.4 °F 93% 30.14 in 7.0 mi NW 10.4 mph - N/A   Overcast
7:35 AM 21.2 °F 10.9 °F 17.6 °F 86% 30.15 in 7.0 mi NNW 9.2 mph - N/A   Overcast
7:55 AM 21.2 °F 8.9 °F 19.4 °F 93% 30.15 in 7.0 mi NW 12.7 mph - N/A   Overcast
8:15 AM 21.2 °F 8.9 °F 17.6 °F 86% 30.16 in 7.0 mi NW 12.7 mph - N/A   Overcast
8:35 AM 21.2 °F 10.1 °F 17.6 °F 86% 30.16 in 10.0 mi NNW 10.4 mph - N/A   Overcast
8:55 AM 21.2 °F 8.9 °F 17.6 °F 86% 30.16 in 7.0 mi NW 12.7 mph - N/A   Overcast
9:15 AM 21.2 °F 8.9 °F 17.6 °F 86% 30.16 in 7.0 mi NW 12.7 mph - N/A   Overcast
9:35 AM 23.0 °F 11.1 °F 17.6 °F 80% 30.17 in 10.0 mi NNW 12.7 mph - N/A   Overcast
9:55 AM 24.8 °F 12.9 °F 19.4 °F 80% 30.17 in 10.0 mi NW 13.8 mph - N/A   Overcast
10:15 AM 24.8 °F 14.0 °F 19.4 °F 80% 30.18 in 10.0 mi NW 11.5 mph 17.3 mph N/A   Overcast
10:35 AM 24.8 °F 13.4 °F 19.4 °F 80% 30.18 in 10.0 mi NNW 12.7 mph - N/A   Overcast
10:55 AM 26.6 °F 15.7 °F 21.2 °F 80% 30.19 in 10.0 mi NW 12.7 mph - N/A   Overcast
11:15 AM 26.6 °F 16.2 °F 21.2 °F 80% 30.18 in 10.0 mi NW 11.5 mph - N/A   Overcast
11:35 AM 26.6 °F 15.2 °F 21.2 °F 80% 30.19 in 10.0 mi NW 13.8 mph 17.3 mph N/A   Overcast
11:55 AM 26.6 °F 16.2 °F 21.2 °F 80% 30.19 in 10.0 mi NNW 11.5 mph - N/A   Overcast
12:15 PM 26.6 °F 16.8 °F 21.2 °F 80% 30.18 in 10.0 mi NW 10.4 mph - N/A   Overcast
12:35 PM 26.6 °F 17.5 °F 21.2 °F 80% 30.18 in 10.0 mi NNW 9.2 mph - N/A   Overcast
12:55 PM 26.6 °F 17.5 °F 21.2 °F 80% 30.17 in 10.0 mi NNW 9.2 mph - N/A   Overcast
1:15 PM 26.6 °F 17.5 °F 21.2 °F 80% 30.17 in 10.0 mi NNW 9.2 mph - N/A   Overcast
1:35 PM 28.4 °F 19.1 °F 21.2 °F 74% 30.17 in 10.0 mi NNW 10.4 mph - N/A   Overcast
1:55 PM 28.4 °F 19.1 °F 21.2 °F 74% 30.17 in 10.0 mi NNW 10.4 mph - N/A   Overcast
2:15 PM 28.4 °F 18.5 °F 21.2 °F 74% 30.16 in 10.0 mi NNW 11.5 mph 16.1 mph N/A   Overcast
2:35 PM 28.4 °F 18.0 °F 21.2 °F 74% 30.17 in 10.0 mi NNW 12.7 mph - N/A   Overcast
2:55 PM 28.4 °F 19.1 °F 21.2 °F 74% 30.16 in 10.0 mi North 10.4 mph - N/A   Overcast
3:15 PM 28.4 °F 18.5 °F 21.2 °F 74% 30.17 in 10.0 mi North 11.5 mph 16.1 mph N/A   Overcast
3:35 PM 28.4 °F 18.5 °F 21.2 °F 74% 30.17 in 10.0 mi NNW 11.5 mph 17.3 mph N/A   Overcast
3:55 PM 28.4 °F 22.2 °F 21.2 °F 74% 30.17 in 10.0 mi North 5.8 mph - N/A   Overcast
4:15 PM 26.6 °F 16.8 °F 19.4 °F 74% 30.17 in 10.0 mi North 10.4 mph - N/A   Overcast
4:35 PM 26.6 °F 16.8 °F 19.4 °F 74% 30.17 in 10.0 mi North 10.4 mph - N/A   Overcast
4:55 PM 26.6 °F 16.8 °F 21.2 °F 80% 30.17 in 10.0 mi NNW 10.4 mph - N/A   Overcast
5:15 PM 26.6 °F 17.5 °F 21.2 °F 80% 30.17 in 10.0 mi NNW 9.2 mph - N/A   Overcast
5:55 PM 26.6 °F 20.0 °F 21.2 °F 80% 30.18 in 10.0 mi North 5.8 mph - N/A   Overcast
6:15 PM 26.6 °F 15.7 °F 19.4 °F 74% 30.19 in 10.0 mi North 12.7 mph - N/A   Overcast
6:35 PM 26.6 °F 18.2 °F 21.2 °F 80% 30.19 in 10.0 mi NNW 8.1 mph - N/A   Overcast
7:15 PM 26.6 °F 20.0 °F 21.2 °F 80% 30.20 in 10.0 mi North 5.8 mph - N/A   Overcast
7:35 PM 26.6 °F 19.1 °F 21.2 °F 80% 30.20 in 10.0 mi NNW 6.9 mph - N/A   Overcast
7:55 PM 24.8 °F 16.1 °F 21.2 °F 86% 30.20 in 10.0 mi NNW 8.1 mph - N/A   Overcast
8:15 PM 24.8 °F 16.9 °F 21.2 °F 86% 30.20 in 10.0 mi NNW 6.9 mph - N/A   Overcast
8:35 PM 24.8 °F 16.9 °F 21.2 °F 86% 30.21 in 10.0 mi NNW 6.9 mph - N/A   Overcast
8:55 PM 24.8 °F 16.9 °F 19.4 °F 80% 30.20 in 10.0 mi North 6.9 mph - N/A   Overcast
9:15 PM 24.8 °F 16.9 °F 19.4 °F 80% 30.21 in 10.0 mi NNW 6.9 mph - N/A   Overcast
9:35 PM 24.8 °F 16.1 °F 19.4 °F 80% 30.21 in 10.0 mi NNW 8.1 mph - N/A   Overcast
10:15 PM 24.8 °F 17.9 °F 19.4 °F 80% 30.21 in 10.0 mi North 5.8 mph - N/A   Overcast
10:35 PM 24.8 °F 17.9 °F 19.4 °F 80% 30.21 in 10.0 mi North 5.8 mph - N/A   Overcast
10:55 PM 24.8 °F 17.9 °F 19.4 °F 80% 30.20 in 10.0 mi NNW 5.8 mph - N/A   Overcast
11:15 PM 24.8 °F 16.9 °F 19.4 °F 80% 30.20 in 10.0 mi North 6.9 mph - N/A   Overcast
11:35 PM 24.8 °F 17.9 °F 19.4 °F 80% 30.20 in 10.0 mi NNW 5.8 mph - N/A   Overcast
11:55 PM 24.8 °F 17.9 °F 19.4 °F 80% 30.20 in 10.0 mi NNW 5.8 mph - N/A   Overcast